• In Deutschland
  • Länderverzeichnis
  • Für 7 Tage
  • Wassertemperatur
  • Satellitenkarten
  • Wetterkarte
  • Widgets
  • user-avatar
    Anmelden

    Stündliche Wetter Saarlouis

    Heute, 21 September, Freitag

    Zeit Temperatur Niederschläge Wind Luftdruck Luftfeuchtigkeit
    00:00 +18°C° 0 mm 3 m/S 742 mmHg 84%
    01:00 +18°C° 0 mm 3 m/S 742 mmHg 82%
    02:00 +18°C° 0 mm 3 m/S 742 mmHg 80%
    03:00 +18°C° 0 mm 3 m/S 742 mmHg 78%
    04:00 +18°C° 0 mm 4 m/S 741 mmHg 78%
    05:00 +18°C° 0 mm 4 m/S 741 mmHg 78%
    06:00 +18°C° 0 mm 4 m/S 741 mmHg 78%
    07:00 +19°C° 0 mm 5 m/S 741 mmHg 73%
    08:00 +21°C° 0 mm 6 m/S 741 mmHg 69%
    09:00 +22°C° 0 mm 8 m/S 741 mmHg 64%
    10:00 +21°C° 0.1 mm 8 m/S 741 mmHg 67%
    11:00 +20°C° 0.1 mm 8 m/S 742 mmHg 71%
    12:00 +18°C° 0.1 mm 8 m/S 742 mmHg 75%
    13:00 +18°C° 0.1 mm 8 m/S 743 mmHg 70%
    14:00 +18°C° 0.1 mm 7 m/S 743 mmHg 65%
    15:00 +17°C° 0.1 mm 7 m/S 743 mmHg 60%
    16:00 +16°C° 0 mm 6 m/S 744 mmHg 59%
    17:00 +15°C° 0 mm 5 m/S 745 mmHg 57%
    18:00 +14°C° 0 mm 4 m/S 746 mmHg 56%
    19:00 +13°C° 0 mm 4 m/S 746 mmHg 56%
    20:00 +13°C° 0 mm 4 m/S 747 mmHg 56%
    21:00 +12°C° 0 mm 4 m/S 748 mmHg 56%
    22:00 +11°C° 0 mm 3 m/S 748 mmHg 59%
    23:00 +11°C° 0 mm 3 m/S 749 mmHg 62%

    Morgen, 22 September, Samstag

    Zeit Temperatur Niederschläge Wind Luftdruck Luftfeuchtigkeit
    00:00 +10°C° 0 mm 3 m/S 749 mmHg 66%
    01:00 +10°C° 0 mm 3 m/S 749 mmHg 69%
    02:00 +9°C° 0 mm 3 m/S 750 mmHg 72%
    03:00 +9°C° 0 mm 3 m/S 750 mmHg 75%
    04:00 +8°C° 0 mm 3 m/S 750 mmHg 77%
    05:00 +8°C° 0 mm 3 m/S 750 mmHg 78%
    06:00 +8°C° 0 mm 3 m/S 750 mmHg 80%
    07:00 +10°C° 0 mm 3 m/S 750 mmHg 73%
    08:00 +12°C° 0 mm 4 m/S 751 mmHg 66%
    09:00 +14°C° 0 mm 4 m/S 751 mmHg 60%
    10:00 +15°C° 0 mm 4 m/S 751 mmHg 55%
    11:00 +17°C° 0 mm 4 m/S 750 mmHg 50%
    12:00 +17°C° 0 mm 5 m/S 750 mmHg 46%
    13:00 +18°C° 0 mm 4 m/S 750 mmHg 46%
    14:00 +18°C° 0 mm 4 m/S 750 mmHg 46%
    15:00 +18°C° 0 mm 4 m/S 749 mmHg 47%
    16:00 +16°C° 0 mm 3 m/S 749 mmHg 51%
    17:00 +14°C° 0 mm 3 m/S 749 mmHg 56%
    18:00 +14°C° 0 mm 2 m/S 749 mmHg 61%
    19:00 +14°C° 0 mm 2 m/S 750 mmHg 61%
    20:00 +14°C° 0 mm 1 m/S 750 mmHg 61%
    21:00 +14°C° 0 mm 1 m/S 750 mmHg 61%
    22:00 +14°C° 0.2 mm 1 m/S 750 mmHg 65%
    23:00 +13°C° 0.2 mm 1 m/S 749 mmHg 69%

    übermorgen, 23 September, Sonntag

    Zeit Temperatur Niederschläge Wind Luftdruck Luftfeuchtigkeit
    00:00 +13°C° 0.2 mm 1 m/S 749 mmHg 73%
    01:00 +13°C° 0.4 mm 1 m/S 748 mmHg 77%
    02:00 +13°C° 0.4 mm 1 m/S 748 mmHg 81%
    03:00 +12°C° 0.4 mm 2 m/S 747 mmHg 85%
    04:00 +13°C° 0.9 mm 2 m/S 747 mmHg 87%
    05:00 +13°C° 0.9 mm 2 m/S 746 mmHg 89%
    06:00 +13°C° 0.9 mm 2 m/S 746 mmHg 92%
    07:00 +14°C° 0.7 mm 4 m/S 746 mmHg 92%
    08:00 +15°C° 0.7 mm 5 m/S 746 mmHg 92%
    09:00 +17°C° 0.7 mm 6 m/S 745 mmHg 93%
    10:00 +18°C° 0.2 mm 7 m/S 745 mmHg 91%
    11:00 +20°C° 0.2 mm 7 m/S 745 mmHg 90%
    12:00 +20°C° 0.2 mm 7 m/S 744 mmHg 89%
    13:00 +21°C° 0.4 mm 7 m/S 744 mmHg 89%
    14:00 +21°C° 0.4 mm 8 m/S 743 mmHg 88%
    15:00 +21°C° 0.4 mm 8 m/S 742 mmHg 88%
    16:00 +21°C° 1.6 mm 9 m/S 741 mmHg 89%
    17:00 +21°C° 1.6 mm 9 m/S 741 mmHg 89%
    18:00 +19°C° 1.6 mm 10 m/S 740 mmHg 90%
    19:00 +18°C° 1.7 mm 10 m/S 741 mmHg 89%
    20:00 +17°C° 1.7 mm 10 m/S 742 mmHg 87%
    21:00 +16°C° 1.7 mm 10 m/S 743 mmHg 86%
    22:00 +12°C° 0 mm 8 m/S 745 mmHg 86%
    23:00 +10°C° 0 mm 7 m/S 746 mmHg 86%

    24 September, Montag

    Zeit Temperatur Niederschläge Wind Luftdruck Luftfeuchtigkeit
    00:00 +8°C° 0 mm 5 m/S 748 mmHg 86%
    01:00 +7°C° 0 mm 4 m/S 750 mmHg 87%
    02:00 +8°C° 0 mm 3 m/S 751 mmHg 88%
    03:00 +7°C° 0 mm 2 m/S 753 mmHg 89%
    04:00 +7°C° 0 mm 2 m/S 753 mmHg 90%
    05:00 +7°C° 0 mm 2 m/S 754 mmHg 91%
    06:00 +7°C° 0 mm 2 m/S 755 mmHg 92%
    07:00 +8°C° 0 mm 2 m/S 756 mmHg 82%
    08:00 +10°C° 0 mm 3 m/S 756 mmHg 73%
    09:00 +12°C° 0 mm 4 m/S 757 mmHg 63%
    10:00 +13°C° 0 mm 4 m/S 757 mmHg 57%
    11:00 +14°C° 0 mm 4 m/S 757 mmHg 51%
    12:00 +15°C° 0 mm 4 m/S 757 mmHg 45%
    13:00 +15°C° 0 mm 4 m/S 757 mmHg 46%
    14:00 +15°C° 0 mm 4 m/S 757 mmHg 47%
    15:00 +15°C° 0 mm 4 m/S 757 mmHg 48%
    16:00 +13°C° 0 mm 3 m/S 757 mmHg 56%
    17:00 +12°C° 0 mm 3 m/S 758 mmHg 63%
    18:00 +10°C° 0 mm 2 m/S 758 mmHg 70%
    19:00 +9°C° 0 mm 2 m/S 759 mmHg 72%
    20:00 +9°C° 0 mm 2 m/S 759 mmHg 74%
    21:00 +8°C° 0 mm 3 m/S 760 mmHg 76%
    22:00 +7°C° 0 mm 3 m/S 760 mmHg 76%
    23:00 +7°C° 0 mm 3 m/S 760 mmHg 75%

    25 September, Dienstag

    Zeit Temperatur Niederschläge Wind Luftdruck Luftfeuchtigkeit
    00:00 +7°C° 0 mm 3 m/S 760 mmHg 75%
    01:00 +5°C° 0 mm 3 m/S 760 mmHg 76%
    02:00 +5°C° 0 mm 3 m/S 760 mmHg 78%
    03:00 +4°C° 0 mm 3 m/S 760 mmHg 79%
    04:00 +4°C° 0 mm 3 m/S 761 mmHg 80%
    05:00 +4°C° 0 mm 3 m/S 761 mmHg 80%
    06:00 +4°C° 0 mm 3 m/S 761 mmHg 81%
    07:00 +6°C° 0 mm 4 m/S 761 mmHg 72%
    08:00 +8°C° 0 mm 5 m/S 761 mmHg 63%
    09:00 +10°C° 0 mm 6 m/S 761 mmHg 54%
    10:00 +11°C° 0 mm 6 m/S 761 mmHg 50%
    11:00 +13°C° 0 mm 6 m/S 760 mmHg 46%
    12:00 +15°C° 0 mm 6 m/S 760 mmHg 42%
    13:00 +15°C° 0 mm 6 m/S 759 mmHg 42%
    14:00 +15°C° 0 mm 5 m/S 759 mmHg 42%
    15:00 +15°C° 0 mm 5 m/S 758 mmHg 41%
    16:00 +13°C° 0 mm 5 m/S 758 mmHg 46%
    17:00 +12°C° 0 mm 4 m/S 758 mmHg 50%
    18:00 +10°C° 0 mm 4 m/S 758 mmHg 54%
    19:00 +8°C° 0 mm 4 m/S 758 mmHg 55%
    20:00 +9°C° 0 mm 3 m/S 758 mmHg 56%
    21:00 +8°C° 0 mm 3 m/S 758 mmHg 57%
    22:00 +8°C° 0 mm 3 m/S 758 mmHg 59%
    23:00 +7°C° 0 mm 3 m/S 757 mmHg 60%

    26 September, Mittwoch

    Zeit Temperatur Niederschläge Wind Luftdruck Luftfeuchtigkeit
    00:00 +7°C° 0 mm 3 m/S 757 mmHg 62%
    01:00 +5°C° 0 mm 3 m/S 757 mmHg 64%
    02:00 +5°C° 0 mm 2 m/S 757 mmHg 66%
    03:00 +5°C° 0 mm 2 m/S 757 mmHg 68%
    04:00 +5°C° 0 mm 2 m/S 757 mmHg 68%
    05:00 +6°C° 0 mm 1 m/S 757 mmHg 69%
    06:00 +5°C° 0 mm 1 m/S 757 mmHg 69%
    07:00 +8°C° 0 mm 1 m/S 756 mmHg 62%
    08:00 +11°C° 0 mm 1 m/S 756 mmHg 54%
    09:00 +14°C° 0 mm 1 m/S 756 mmHg 46%
    10:00 +16°C° 0 mm 1 m/S 756 mmHg 44%
    11:00 +18°C° 0 mm 2 m/S 756 mmHg 42%
    12:00 +20°C° 0 mm 2 m/S 756 mmHg 41%
    13:00 +21°C° 0 mm 2 m/S 755 mmHg 42%
    14:00 +21°C° 0 mm 2 m/S 755 mmHg 42%
    15:00 +23°C° 0 mm 2 m/S 754 mmHg 43%
    16:00 +20°C° 0 mm 1 m/S 754 mmHg 51%
    17:00 +18°C° 0 mm 1 m/S 754 mmHg 59%
    18:00 +13°C° 0 mm 0 m/S 754 mmHg 67%
    19:00 +14°C° 0 mm 1 m/S 754 mmHg 70%
    20:00 +13°C° 0 mm 1 m/S 754 mmHg 72%
    21:00 +13°C° 0 mm 1 m/S 754 mmHg 75%
    22:00 +13°C° 0 mm 1 m/S 754 mmHg 77%
    23:00 +13°C° 0 mm 1 m/S 753 mmHg 79%
    Mehr zeigen